Location: Galloro
(41.7167°N, 12.6667°E)
Time: 12:29:03
(UTC+00:00)

Daily predictions for brighter satellites

Satellite Brightness Start Highest point End
(mag) Time Altitude Azimuth Time Altitude Azimuth Time Altitude Azimuth
CZ-4B R/B 3.4 16:02:56 10° SE 16:08:00 47° ENE 16:13:04 10° N
Cosmos 44 3.5 16:03:49 10° NNW 16:09:10 73° NE 16:14:35 10° SE
H-2A R/B 2.4 16:06:39 10° SSE 16:10:53 70° ENE 16:14:59 10° N
Cosmos 1943 4.5 16:08:57 10° SSE 16:13:05 21° E 16:17:14 10° NE
MOS 1-B 4.4 16:07:26 10° SSE 16:13:13 85° ENE 16:19:04 10° NNW
Cosmos 2369 Rocket 3.0 16:11:44 10° N 16:16:41 29° NE 16:21:34 10° ESE
NOAA 12 4.2 16:12:26 10° SSE 16:17:37 55° ENE 16:22:48 10° N
CENTAUR R/B 4.2 16:15:43 10° ESE 16:17:41 12° ESE 16:19:44 10° E
Cosmos 1943 Rocket 2.4 16:13:05 10° NNW 16:18:26 47° ENE 16:23:48 10° SE
ADEOS Rocket 3.9 16:11:00 10° N 16:18:47 74° WNW 16:26:22 10° SSW
H-2A R/B 2.0 16:18:39 10° NNE 16:22:54 82° ESE 16:27:14 10° SSW
NOAA 6 4.3 16:19:13 10° S 16:24:21 78° WSW 16:29:31 10° NNW
Okean O Rocket 1.7 16:20:13 10° SSE 16:24:27 54° ENE 16:28:45 10° N
Cosmos 1782 3.4 16:21:47 10° SSE 16:25:24 36° E 16:29:04 10° NNE
Okean-O 4.3 16:24:26 10° E 16:26:25 13° ENE 16:28:25 10° NE
H-2A R/B 4.3 16:25:25 10° S 16:29:02 40° W 16:32:44 10° NNW
Cosmos 1933 3.4 16:27:00 10° S 16:31:02 84° W 16:35:08 10° N
ISS -1.6 16:29:00 10° NW 16:31:04 15° N 16:32:58 11° NE
Cosmos 1633 Rocket 3.0 16:27:39 10° N 16:32:02 75° E 16:36:21 10° SSE
Cosmos 2218 Rocket 3.9 16:32:26 10° N 16:38:36 70° E 16:44:44 10° SSE
SKYMED 2 4.4 16:35:11 10° NE 16:38:59 29° E 16:42:46 10° SSE
Cosmos 2366 rocket 3.9 16:33:24 10° N 16:39:34 68° E 16:45:39 10° SSE
ERS-2 2.7 16:36:32 10° NNE 16:39:58 36° E 16:43:22 10° SSE
Meteor 1-25 Rocket 4.2 16:34:42 10° N 16:40:23 85° E 16:46:07 10° S
Envisat 3.9 16:35:43 10° S 16:40:40 53° W 16:45:39 10° NNW
Cosmos 489 Rocket 4.4 16:35:31 10° S 16:41:39 70° ESE 16:47:52 10° NNE
Lacrosse 5 rocket 3.0 16:44:39 10° W 16:47:25 20° NNW 16:50:11 10° NNE
Cosmos 773 Rocket 4.4 16:42:17 10° SSW 16:47:31 68° WNW 16:52:49 10° NNE
SL-23 DEB 4.1 16:45:15 10° WSW 16:48:43 70° NNW 16:52:39 17° NE
YAOGAN 6 4.2 16:46:29 10° SSW 16:49:52 38° W 16:53:16 10° NNW
NOSS 3-2 (A) 3.9 16:45:01 10° S 16:50:02 37° ESE 16:54:01 17° ENE
FengYun 1-2 T 4.2 16:49:17 10° SSE 16:54:48 82° ENE 17:00:20 10° NNW
AQUARIUS 4.5 16:50:26 10° S 16:54:54 71° WSW 16:59:24 10° NNW
Feng Yun 1-1 Rocket 4.3 16:49:20 10° SSE 16:54:57 56° ENE 17:00:25 10° N
SL-16 R/B 3.4 16:52:34 10° SW 16:57:50 39° WNW 17:03:08 10° N
CZ-4B R/B 1.1 16:56:26 11° NNE 16:59:27 86° E 17:02:38 10° SSW
BREEZE-M DEB (TANK) 3.1 17:01:08 10° W 17:03:05 24° NNW 17:03:26 22° N
SMAP 4.0 16:59:25 10° S 17:03:56 50° W 17:08:29 10° NNW
USA 215 3.5 16:59:21 19° ENE 17:03:56 51° SE 17:10:15 10° SSW
Cosmos 1500 3.5 17:03:55 10° N 17:07:35 43° ENE 17:11:14 10° SSE
YAOGAN 1 3.9 17:09:19 21° NNE 17:09:19 21° NNE 17:11:20 10° N
USA 238 DEB 3.9 17:02:54 10° S 17:09:07 48° ESE 17:13:06 23° NE
USA 238 3.9 17:03:00 10° S 17:09:13 48° ESE 17:13:10 23° NE
Cosmos 1151 Rocket 4.4 17:07:16 10° SSW 17:11:15 38° WNW 17:15:15 10° N
Cosmos 1656 Rocket 3.9 17:06:59 10° NNW 17:12:21 44° ENE 17:17:19 12° SE
SL-24 DEB 4.2 17:08:41 10° N 17:13:24 67° E 17:18:03 10° S
Cosmos 1470 Rocket 3.9 17:10:13 10° NNW 17:14:30 66° W 17:18:47 10° S
MOS 1 Rocket 4.0 17:13:25 20° NE 17:16:41 40° E 17:21:40 10° SSE
STPSAT 2 (USA 217) 4.5 17:12:22 10° SSW 17:16:53 81° ESE 17:19:42 23° NNE
Cosmos 158 Rocket 3.9 17:13:45 10° S 17:18:36 55° ESE 17:20:54 29° NE
Cosmos 1515 Rocket 3.9 17:14:50 10° SSW 17:19:10 65° W 17:23:34 10° N
CZ-2C R/B 3.1 17:14:54 10° SE 17:19:39 45° ENE 17:24:15 10° N
Cosmos 2263 4.1 17:15:40 10° NNW 17:21:16 67° ENE 17:26:49 10° SSE
Cosmos 923 Rocket 3.9 17:16:50 10° S 17:21:56 62° ESE 17:24:49 26° NNE
Cosmos 1934 Rocket 4.4 17:17:36 10° N 17:23:28 37° ENE 17:29:13 10° SE
USA 281 3.4 17:20:13 10° SE 17:26:27 48° ENE 17:32:43 10° NNW
Cosmos 1238 Rocket 3.2 17:22:37 10° N 17:26:40 52° E 17:31:34 10° SSE
COSMO-SKYMED 1 2.6 17:23:06 12° N 17:27:09 82° WNW 17:31:29 10° SSW
Cosmos 1689 Rocket 2.9 17:29:01 39° S 17:29:01 39° S 17:31:01 10° S
Nadezhda 3 Rocket 3.9 17:22:02 10° S 17:28:21 74° E 17:34:44 10° N
X-37B 1.2 17:26:36 10° W 17:29:28 46° NNW 17:29:28 46° NNW
SAR-Lupe-4 3.6 17:29:13 34° N 17:30:41 78° WNW 17:34:15 10° SSW
Helios 1A Rocket 4.4 17:33:26 23° N 17:33:26 23° N 17:35:05 10° N
Meteor 2-6 Rocket 4.1 17:25:55 10° S 17:31:31 85° E 17:37:01 10° N
Cosmos 2228 Rocket 3.0 17:27:12 10° S 17:31:43 80° E 17:34:29 23° NNE
H-2A R/B 2.5 17:35:18 39° NE 17:35:18 39° NE 17:39:19 10° N
Cosmos 1812 2.6 17:31:46 10° S 17:35:35 88° W 17:36:35 49° N
USA 267 3.9 17:34:11 32° NE 17:35:51 37° NNE 17:41:44 10° NW
Cosmos 1939 Rocket 3.5 17:33:24 10° S 17:37:11 54° W 17:41:04 10° NNW
CZ-4 R/B 4.4 17:34:48 10° S 17:38:56 81° WSW 17:43:05 10° NNW
CZ-4 R/B 2.7 17:41:27 27° N 17:41:27 27° N 17:43:24 10° N
Cosmos 1821 Rocket 3.9 17:33:11 10° N 17:39:29 85° E 17:45:50 10° S
Cosmos 2084 4.1 17:36:18 10° SSW 17:39:33 39° SSE 17:39:33 39° SSE
Meteor 1-11 Rocket 3.8 17:36:52 10° N 17:42:35 56° ENE 17:48:22 10° SSE
BREEZE-M DEB (TANK) 2.5 17:39:47 10° SW 17:42:53 51° SSW 17:42:53 51° SSW
IRS-1C Rocket 4.3 17:38:08 10° S 17:43:23 73° WSW 17:48:41 10° NNW
PSLV R/B 3.9 17:42:20 45° N 17:43:30 79° WNW 17:47:32 10° SSW
Cosmos 44 Rocket 3.4 17:39:44 10° NNW 17:44:52 59° NE 17:45:09 58° ENE
Lacrosse 4 Rocket 2.5 17:44:36 10° S 17:46:59 32° S 17:46:59 32° S
Cosmos 1680 Rocket 3.4 17:43:32 10° SSW 17:48:48 82° ESE 17:50:19 48° NNE
Cosmos 1603 4.4 17:47:50 10° SW 17:53:19 51° WNW 17:56:56 21° N
CZ-2D R/B 4.1 17:50:22 10° S 17:54:04 48° W 17:57:48 10° NNW
Cosmos 1943 3.8 17:51:07 10° SW 17:56:39 55° WNW 17:59:58 24° N
Cosmos 2369 Rocket 3.4 17:55:31 10° NW 18:00:50 42° WSW 18:06:05 10° S
Cosmos 1943 Rocket 4.4 17:57:26 10° NW 18:01:51 25° WSW 18:06:17 10° SSW
Okean-O 2.9 17:57:56 10° S 18:02:19 67° WSW 18:06:45 10° NNW
Cosmos 1461 3.4 17:58:59 10° SSW 18:02:44 61° SSW 18:02:44 61° SSW
CENTAUR R/B 2.3 18:01:06 10° SSW 18:06:51 82° ESE 18:07:44 67° NE
ISS -0.7 18:05:48 10° NW 18:05:55 11° NW 18:05:55 11° NW
Cosmos 2112 Rocket 4.0 18:04:08 10° SSW 18:09:24 78° WNW 18:09:53 71° NNW
NOSS 3-2 (C) 3.2 18:09:28 10° SW 18:15:01 89° NW 18:15:10 86° NNE
Meteor 1-27 Rocket 3.7 18:14:43 10° SSW 18:20:11 77° W 18:20:11 77° W
BREEZE-M DEB (TANK) 4.1 18:13:55 10° WSW 18:19:59 46° WNW 18:19:59 46° WNW
NOSS 3-2 (A) 4.4 18:35:26 10° WSW 18:40:46 39° NW 18:41:27 38° NNW
USA 215 3.7 18:46:42 52° NNW 18:46:56 52° NNW 18:53:14 10° WSW
H-2A R/B 4.3 19:15:55 20° WNW 19:15:55 20° WNW 19:18:10 10° NW
USA 267 4.5 19:21:32 35° NW 19:21:32 35° NW 19:25:02 10° NW
